Racine, WI

5:41 AM CST on February 07, 2016 (GMT -0600)
Batten

Weather History for KRAC - February, 2014

Change the Weather History Date:

Saturday, February 8, 2014

  Actual Average Record
Temperature  
Mean Temperature 10 °F -  
Max Temperature 16 °F 28 °F 49 °F (1987)
Min Temperature 3 °F 13 °F -14 °F (1951)
Degree Days  
Heating Degree Days 56    
Moisture  
Dew Point 6 °F    
Average Humidity 80    
Maximum Humidity 95    
Minimum Humidity 67    
Precipitation  
Precipitation 0.00 in - - ()
Sea Level Pressure  
Sea Level Pressure 30.21 in    
Wind  
Wind Speed 4 mph (SW)    
Max Wind Speed 9 mph    
Max Gust Speed -    
Visibility 4 miles    
Events Fog , Snow    
Averages and records for this station are not official NWS values.
T = Trace of Precipitation, MM = Missing Value Source: NWS Daily Summary

Daily Weather History Graph

Daily Weather History Graph

Search for Another Location

Airport or City:

Trip Planner

Search our weather history database for the weather conditions in past years. The results will help you decide how hot, cold, wet, or windy it might be!

Date:

Astronomy

Feb. 08, 2014 Rise Set
Actual Time 6:57 AM CST 5:13 PM CST
Civil Twilight 6:28 AM CST 5:43 PM CST
Nautical Twilight 5:54 AM CST 6:16 PM CST
Astronomical Twilight 5:21 AM CST 6:49 PM CST
Moon 12:05 PM CST (2/8) 2:11 AM CST (2/8)
Length of Visible Light 11h 15m
Length of Day
10h 16m
Waxing Gibbous, 69% of the Moon is Illuminated
Feb 8
Waxing Gibbous
Feb 14
Full
Feb 22
Last Quarter
Mar 1
New
Mar 8
First Quarter

Hourly Weather History & Observations

Time (CST) Temp. Windchill Dew Point Humidity Pressure Visibility Wind Dir Wind Speed Gust Speed Precip Events Conditions
12:53 AM 3.9 °F -6.9 °F -4.0 °F 70% 30.34 in 10.0 mi WSW 5.8 mph - N/A   Clear
1:53 AM 5.0 °F -6.9 °F -2.9 °F 70% 30.35 in 10.0 mi SW 6.9 mph - N/A   Clear
2:53 AM 6.1 °F -5.6 °F -2.0 °F 69% 30.33 in 10.0 mi WSW 6.9 mph - N/A   Clear
3:53 AM 7.0 °F -4.5 °F -2.0 °F 67% 30.33 in 10.0 mi WSW 6.9 mph - N/A   Scattered Clouds
4:53 AM 7.0 °F -4.5 °F -0.9 °F 70% 30.32 in 10.0 mi WSW 6.9 mph - N/A   Overcast
5:53 AM 8.1 °F -3.2 °F -0.0 °F 70% 30.31 in 7.0 mi WSW 6.9 mph - N/A   Overcast
6:08 AM 8.1 °F -3.2 °F 1.0 °F 73% 30.26 in 1.8 mi SW 6.9 mph - 0.00 in Snow Light Snow
6:20 AM 8.1 °F -3.2 °F 3.0 °F 80% 30.27 in 1.0 mi SW 6.9 mph - 0.00 in Snow Light Snow
6:47 AM 8.6 °F -1.3 °F 3.2 °F 79% 30.26 in 2.0 mi SW 5.8 mph - 0.00 in Snow Light Snow
6:53 AM 8.1 °F -3.2 °F 3.9 °F 83% 30.31 in 2.5 mi SW 6.9 mph - 0.00 in Snow Light Snow
7:32 AM 8.1 °F -0.5 °F 3.9 °F 83% 30.27 in 4.0 mi WSW 4.6 mph - 0.00 in   Overcast
7:53 AM 8.1 °F 1.4 °F 3.9 °F 83% 30.32 in 4.0 mi WSW 3.5 mph - 0.00 in   Overcast
8:53 AM 10.0 °F - 5.0 °F 80% 30.30 in 8.0 mi Calm Calm - N/A   Overcast
9:53 AM 12.0 °F 0.5 °F 5.0 °F 73% 30.30 in 10.0 mi SSW 8.1 mph - N/A   Overcast
10:53 AM 12.9 °F 2.6 °F 5.0 °F 71% 30.29 in 10.0 mi SSW 6.9 mph - N/A   Overcast
11:53 AM 14.0 °F 8.2 °F 5.0 °F 67% 30.26 in 4.0 mi South 3.5 mph - 0.00 in Snow Light Snow
12:49 PM 14.0 °F 3.9 °F 6.8 °F 73% 30.19 in 2.5 mi SSW 6.9 mph - 0.00 in Snow Light Snow
12:53 PM 14.0 °F 2.0 °F 7.0 °F 74% 30.24 in 2.5 mi SW 9.2 mph - 0.00 in Snow Light Snow
1:11 PM 14.0 °F 6.5 °F 7.0 °F 74% 30.18 in 1.5 mi SSW 4.6 mph - 0.00 in Snow Light Snow
1:25 PM 14.0 °F - 8.1 °F 77% 30.16 in 0.5 mi Calm Calm - 0.00 in Snow Snow
1:53 PM 12.9 °F 5.2 °F 9.0 °F 84% 30.21 in 0.5 mi SW 4.6 mph - 0.00 in Fog , Snow Snow
2:28 PM 14.0 °F - 10.0 °F 84% 30.15 in 0.8 mi Calm Calm - 0.00 in Snow Light Snow
2:37 PM 15.1 °F - 10.0 °F 80% 30.15 in 1.2 mi Calm Calm - 0.00 in Snow Light Snow
2:48 PM 15.8 °F - 10.4 °F 79% 30.15 in 2.0 mi Calm Calm - 0.00 in Snow Light Snow
2:53 PM 15.1 °F - 10.0 °F 80% 30.19 in 2.0 mi Calm Calm - 0.00 in Snow Light Snow
3:09 PM 15.1 °F - 10.0 °F 80% 30.15 in 1.5 mi Calm Calm - 0.00 in Snow Light Snow
3:18 PM 16.0 °F - 10.0 °F 77% 30.15 in 1.2 mi Calm Calm - 0.00 in Snow Light Snow
3:40 PM 15.1 °F - 10.9 °F 84% 30.15 in 0.8 mi Calm Calm - 0.00 in Snow Light Snow
3:53 PM 15.1 °F 5.2 °F 10.0 °F 80% 30.19 in 1.0 mi South 6.9 mph - 0.00 in Snow Light Snow
4:12 PM 15.1 °F 6.4 °F 10.0 °F 80% 30.14 in 2.0 mi South 5.8 mph - 0.00 in Snow Light Snow
4:20 PM 16.0 °F 7.4 °F 10.0 °F 77% 30.14 in 2.0 mi South 5.8 mph - 0.00 in Snow Light Snow
4:38 PM 15.1 °F 9.4 °F 10.0 °F 80% 30.15 in 1.8 mi South 3.5 mph - 0.00 in Snow Light Snow
4:53 PM 15.1 °F - 10.9 °F 84% 30.19 in 2.0 mi Calm Calm - 0.00 in Snow Light Snow
5:29 PM 15.1 °F - 10.9 °F 84% 30.15 in 3.0 mi Calm Calm - 0.00 in Snow Light Snow
5:53 PM 15.1 °F - 10.9 °F 84% 30.19 in 1.5 mi Calm Calm - 0.00 in Snow Light Snow
6:01 PM 15.1 °F 9.4 °F 10.9 °F 84% 30.16 in 1.5 mi West 3.5 mph - 0.00 in Snow Light Snow
6:51 PM 12.2 °F - 8.6 °F 85% 30.15 in 2.5 mi Calm Calm - 0.00 in Snow Light Snow
6:53 PM 12.9 °F - 10.0 °F 88% 30.19 in 3.0 mi Calm Calm - 0.00 in Snow Light Snow
7:01 PM 12.0 °F - 9.0 °F 88% 30.15 in 4.0 mi Calm Calm - 0.00 in   Overcast
7:42 PM 10.0 °F 3.6 °F 7.0 °F 87% 30.15 in 4.0 mi West 3.5 mph - 0.00 in   Overcast
7:53 PM 5.0 °F -2.1 °F 3.9 °F 95% 30.20 in 5.0 mi NW 3.5 mph - 0.00 in   Mostly Cloudy
8:01 PM 9.0 °F 2.4 °F 5.0 °F 84% 30.15 in 5.0 mi WNW 3.5 mph - N/A   Mostly Cloudy
8:53 PM 10.0 °F - 7.0 °F 87% 30.18 in 6.0 mi Calm Calm - N/A   Overcast
9:53 PM 10.9 °F 4.7 °F 8.1 °F 88% 30.19 in 4.0 mi West 3.5 mph - 0.00 in   Overcast
10:43 PM 10.0 °F - 8.1 °F 92% 30.14 in 5.0 mi Calm Calm - N/A   Overcast
10:53 PM 9.0 °F - 7.0 °F 92% 30.18 in 4.0 mi Calm Calm - N/A   Overcast
11:09 PM 10.0 °F - 7.0 °F 87% 30.13 in 4.0 mi Calm Calm - N/A   Overcast
11:53 PM 10.9 °F - 8.1 °F 88% 30.17 in 3.0 mi Calm Calm - 0.00 in Snow Light Snow